GFSSW_925_temp_276.txt.gz
Temp
11 11 12 13 13 13 13 13 13 14 14 14 15 15 16 15 16 16 14 13 14 16 17 18 20 22 22 22 22 23 22 22 21 21 20 20 19 19 18 18 17 17 16 15 15
11 12 12 12 12 13 13 13 14 14 14 14 14 15 15 16 16 15 14 15 16 17 18 20 21 22 21 22 21 20 21 19 19 19 19 19 18 18 18 18 18 17 17 15 14
11 12 12 12 12 13 13 13 14 14 14 14 14 14 15 16 17 16 15 16 17 17 16 19 20 22 21 20 19 20 19 19 18 17 18 19 18 18 17 18 16 15 14 14 14
11 11 12 12 13 14 14 14 14 14 14 14 14 15 15 15 18 15 15 16 16 17 17 20 21 21 20 19 20 18 18 19 18 17 18 17 17 17 17 16 15 15 14 13 13
11 11 12 12 13 14 14 14 14 14 15 14 15 15 16 17 15 15 15 15 16 17 18 20 21 21 19 19 19 17 17 18 17 17 17 17 16 17 15 16 15 15 14 14 13
11 11 11 12 13 13 14 14 15 15 15 15 15 15 16 17 14 14 15 15 16 18 17 18 19 19 18 18 17 18 18 17 17 17 17 15 16 16 16 16 15 15 14 14 13
11 11 12 12 13 14 14 14 15 15 15 16 16 16 15 13 14 14 14 15 15 16 17 17 17 19 19 16 18 18 18 17 17 17 16 15 15 15 17 16 15 15 15 14 14
11 11 12 13 15 14 14 14 15 15 15 16 16 16 14 14 14 15 15 16 16 16 16 16 17 17 17 16 18 18 18 18 17 16 15 16 17 17 16 16 15 15 15 15 14
10 11 11 13 15 15 15 15 15 15 15 16 16 16 14 14 14 14 14 14 15 16 16 17 17 16 17 17 17 17 17 18 17 16 16 16 15 18 16 16 14 14 15 16 15
11 10 11 12 14 15 15 15 15 15 15 16 16 17 15 14 13 14 14 14 15 16 17 18 17 17 16 16 16 18 18 18 17 16 15 14 15 18 18 15 14 15 15 16 15
11 10 10 11 14 15 15 15 15 15 14 14 14 15 15 14 14 14 14 14 17 18 17 17 15 13 14 15 16 17 17 17 18 16 14 15 16 17 17 17 16 15 15 15 16
11 11 11 11 13 14 15 16 13 13 14 14 14 14 13 13 15 14 15 16 18 16 17 17 13 14 15 15 15 16 17 15 16 15 14 14 14 15 17 17 17 16 14 14 13
11 11 11 11 12 13 14 14 13 14 17 15 14 15 14 14 14 13 14 15 15 16 15 14 13 14 14 15 14 15 15 13 13 13 14 13 14 16 17 16 16 15 15 15 15
10 11 11 12 13 13 14 13 14 15 13 15 15 14 14 15 13 13 12 14 15 15 14 13 13 13 14 15 13 15 13 13 13 12 13 16 12 17 15 15 15 15 14 15 14
10 10 11 12 12 14 12 13 14 14 18 16 14 13 14 15 14 13 12 15 15 14 14 13 12 13 14 12 12 12 12 12 13 12 12 15 12 18 17 17 16 15 15 15 14
10 10 10 11 12 12 13 14 13 12 17 12 15 15 15 16 14 14 14 13 13 14 12 11 11 11 11 12 12 11 12 12 13 12 9 14 12 16 17 18 17 16 15 14 14
10 10 10 11 12 12 13 13 11 14 12 13 14 15 17 15 15 15 15 14 13 13 10 12 11 10 11 11 11 11 12 9 11 9 11 13 11 14 19 17 17 16 16 15 14
9 9 10 10 12 12 12 12 14 11 11 15 16 16 16 16 15 15 14 13 13 12 10 12 13 11 10 10 11 12 11 10 13 12 11 11 12 17 16 16 16 16 15 15 13
9 9 9 10 11 11 12 10 13 11 13 14 15 13 15 15 15 15 16 13 12 10 12 11 12 9 9 10 10 12 11 11 8 4 8 13 16 18 17 17 15 14 15 14 14
8 9 9 10 11 11 8 12 9 15 16 15 15 14 13 15 15 16 16 15 11 11 9 10 12 8 9 9 10 10 11 10 8 11 11 12 14 14 16 16 15 15 13 14 14
9 10 8 9 10 10 9 10 11 14 14 14 11 14 17 16 17 17 16 13 13 9 11 7 10 9 8 8 10 9 9 11 11 10 10 9 12 16 19 18 17 16 15 13 11
10 7 6 8 7 5 6 7 14 13 12 14 15 16 17 16 16 17 16 14 13 10 11 9 10 11 10 8 8 9 11 12 9 10 8 8 10 14 13 13 14 14 14 12 11
8 7 6 6 8 6 6 12 13 12 13 14 14 15 16 16 14 14 13 11 11 11 11 9 10 11 11 8 7 7 9 11 9 9 8 8 11 12 13 13 11 11 10 9 9
6 7 6 7 8 8 6 9 12 12 13 14 14 14 14 11 13 13 11 9 9 10 9 11 7 10 13 13 10 7 8 9 9 7 9 10 10 13 9 9 8 7 5 5 4
6 6 5 5 5 9 11 11 13 10 11 13 12 14 13 10 9 11 10 8 9 9 9 10 8 6 6 10 11 9 8 7 7 10 12 11 8 12 7 8 8 7 7 5 1
5 6 4 5 8 9 11 10 13 12 11 11 12 14 14 13 14 11 10 11 11 8 9 9 9 6 6 6 7 7 8 7 8 7 8 9 10 13 14 10 5 4 4 5 4
6 5 8 8 8 9 11 11 13 13 12 13 13 13 12 13 9 9 10 11 10 8 8 8 8 8 12 5 4 9 7 8 7 8 9 9 13 14 13 11 10 10 7 6 7

GFSSW_925_temp_279.txt.gz
Temp
12 12 12 12 13 13 13 13 13 14 14 15 16 16 16 16 16 16 12 13 14 17 17 19 20 21 21 20 20 19 16 16 16 17 18 17 17 17 17 16 16 15 14 14 14
12 12 12 12 12 13 13 14 14 14 14 14 15 16 16 16 16 14 14 14 16 17 18 18 19 19 17 19 17 15 13 17 16 16 16 17 17 17 16 16 15 14 14 14 14
12 12 12 12 12 13 13 13 14 14 14 14 14 15 16 16 15 15 15 15 16 17 18 18 19 20 18 17 17 17 15 15 15 15 15 16 17 17 16 15 14 14 13 12 13
11 12 12 13 13 12 14 14 14 14 14 14 15 15 16 15 19 15 15 16 17 17 18 18 19 19 16 17 18 15 16 16 16 15 15 15 14 15 15 15 13 13 13 13 12
11 11 12 13 14 14 14 14 14 14 15 15 16 16 16 14 14 15 15 16 17 18 17 18 18 18 16 16 16 15 16 15 15 15 15 15 14 14 14 13 13 14 13 11 12
11 11 12 12 13 15 14 14 14 14 15 15 16 16 16 16 14 14 15 16 17 17 17 16 17 16 16 16 16 16 15 15 15 16 16 15 14 14 15 12 13 13 12 11 12
11 11 11 12 14 15 15 15 14 14 15 15 16 16 13 14 14 15 15 15 16 17 16 16 17 17 16 15 17 15 15 15 15 16 15 14 13 13 13 13 13 12 12 12 12
11 11 11 12 13 14 15 15 15 15 16 15 16 16 13 14 14 15 16 16 16 17 17 17 17 15 15 16 16 16 16 15 16 15 15 14 12 15 13 12 12 11 10 11 11
11 11 11 11 12 14 15 15 16 16 16 16 16 16 14 14 14 14 15 15 16 17 17 17 17 14 16 15 14 15 15 17 15 15 15 14 12 14 13 12 12 11 11 11 11
11 11 11 11 13 14 15 15 16 16 16 16 16 15 14 14 14 14 15 15 15 16 16 16 14 13 11 12 14 15 15 15 16 14 14 12 11 13 13 12 11 11 11 11 11
11 11 11 12 13 14 15 15 14 13 13 12 13 14 14 14 14 14 14 15 16 15 15 15 12 12 13 13 14 15 15 14 15 14 13 13 11 12 13 13 13 12 12 13 12
11 10 11 11 13 14 14 13 14 15 12 13 13 13 13 13 14 13 14 16 17 15 16 13 12 13 14 14 14 14 14 13 12 14 13 12 12 12 12 14 14 14 13 12 13
11 11 11 11 13 13 13 14 14 15 14 14 13 14 13 13 12 12 12 15 15 14 12 13 12 13 13 13 14 12 13 11 10 11 12 12 12 15 15 15 15 14 13 13 13
10 11 11 11 12 13 13 13 14 14 10 15 14 13 14 14 14 13 12 13 13 13 11 11 12 13 13 12 12 14 11 11 11 9 13 12 12 12 14 13 13 12 11 12 13
10 10 11 11 12 12 13 13 13 13 14 15 13 13 14 14 13 13 13 14 13 13 13 12 11 12 13 11 11 12 11 11 11 10 11 12 9 11 14 14 12 12 11 12 11
10 10 10 11 12 12 13 13 12 11 14 11 13 13 14 14 14 13 13 12 13 13 10 10 10 10 10 11 11 11 11 11 11 9 6 12 11 12 13 16 15 14 12 12 12
10 10 10 11 11 12 13 12 10 11 11 12 12 13 14 13 14 14 14 13 11 11 8 10 10 10 10 11 11 11 10 7 10 8 10 11 9 12 14 15 15 14 14 13 12
9 10 10 11 11 11 12 9 9 8 10 13 14 14 14 14 14 14 13 11 12 11 5 9 11 10 9 10 11 11 10 8 13 11 10 10 12 16 15 14 15 14 14 13 11
9 8 9 11 11 11 9 6 10 10 11 13 14 13 14 14 14 14 13 9 10 10 11 8 10 9 8 9 9 11 8 10 6 2 7 11 13 15 15 15 14 14 14 12 11
8 8 9 10 11 10 7 10 9 13 13 14 14 13 12 13 13 13 12 13 11 10 9 9 10 7 8 9 9 10 10 9 6 11 11 10 12 13 16 16 14 14 13 12 10
9 8 8 9 10 7 7 8 10 13 15 13 11 13 15 14 13 14 13 12 10 9 10 6 8 8 7 6 9 8 7 10 9 8 8 8 13 10 15 16 13 12 12 12 11
8 6 6 8 6 3 5 8 12 12 12 14 14 15 15 14 15 15 14 13 10 9 11 9 8 8 8 7 8 8 11 10 8 9 5 7 11 13 13 13 13 11 11 11 10
7 6 5 6 6 4 4 10 12 11 12 12 13 15 16 15 14 13 11 10 10 11 10 9 8 8 10 8 6 8 9 10 8 7 6 9 11 11 10 11 11 11 9 8 9
6 6 5 5 4 6 5 8 11 12 12 13 13 14 14 10 12 11 9 9 9 9 10 10 5 9 12 13 8 7 6 8 8 4 8 9 11 12 8 7 9 7 5 5 4
6 6 4 5 3 7 9 9 11 9 11 12 12 13 13 9 8 9 8 8 9 9 9 9 8 4 4 8 10 8 7 6 7 9 11 12 8 13 7 8 7 6 7 4 2
6 5 5 2 8 8 9 8 12 10 10 11 12 12 12 12 13 10 9 8 10 7 8 9 9 6 6 4 6 7 7 6 7 5 6 8 10 13 14 9 5 5 3 4 4
6 5 8 7 7 8 10 8 11 12 11 12 12 12 13 12 9 8 9 10 10 8 7 8 8 8 10 4 6 9 8 8 6 6 8 9 14 13 12 12 10 10 7 5 5

GFSSW_925_temp_285.txt.gz
Temp
11 12 12 12 13 13 13 13 14 14 14 15 15 15 16 16 16 16 13 14 14 16 17 19 19 20 19 17 16 14 15 15 16 15 16 16 16 15 15 15 14 14 13 13 13
11 12 12 12 12 13 13 14 14 14 14 15 15 15 16 16 16 14 15 15 15 16 17 17 18 18 15 16 15 14 14 16 15 15 15 15 15 15 15 14 14 13 12 13 13
11 11 11 12 12 13 14 14 14 14 14 14 14 15 15 16 15 15 15 15 16 17 17 17 17 18 17 16 15 14 15 14 14 14 15 15 15 13 14 13 12 13 12 11 12
11 11 11 11 12 14 14 14 14 14 14 15 14 15 15 15 19 15 15 16 17 17 17 17 18 17 15 16 15 15 14 15 14 14 14 14 14 13 12 12 14 11 12 12 11
11 11 11 11 11 13 13 13 14 14 14 14 14 15 15 15 15 15 16 16 17 17 17 17 18 16 15 15 15 15 14 14 14 14 14 14 13 13 12 11 11 11 11 10 10
11 11 11 12 12 13 14 13 14 14 14 14 14 15 15 16 15 15 15 16 17 17 16 16 17 15 14 15 15 14 14 14 14 14 14 14 13 13 13 12 11 10 10 9 9
10 11 11 11 12 13 14 14 14 14 14 14 15 14 14 15 15 15 16 16 16 16 15 15 16 16 15 15 14 14 15 14 14 14 14 13 12 11 12 12 12 10 10 10 9
10 10 11 11 12 13 14 15 14 15 14 14 15 15 14 14 15 16 16 16 16 17 16 16 17 13 14 14 14 15 13 14 15 14 14 13 13 14 13 11 11 10 8 9 9
11 11 11 11 11 13 14 14 14 15 15 15 15 15 16 14 15 15 15 15 16 16 16 17 15 12 13 13 13 12 15 14 15 14 13 12 12 13 12 11 10 9 8 9 8
11 11 11 11 11 12 14 14 14 15 15 15 14 15 14 14 14 14 14 15 15 15 15 14 11 11 10 12 14 15 15 14 14 13 13 11 11 12 11 9 9 8 8 8 8
10 11 11 11 11 11 14 14 13 13 13 15 14 14 13 13 14 14 14 14 15 13 15 12 13 14 13 12 13 14 14 14 13 12 11 10 9 11 11 9 9 9 8 9 9
10 10 11 11 11 11 12 12 14 14 14 12 12 12 12 13 14 14 14 15 15 14 14 13 14 12 12 13 13 13 13 13 11 11 10 10 10 11 10 10 10 10 9 9 10
10 10 10 11 11 12 12 13 14 14 14 13 13 13 13 13 13 14 13 14 14 13 12 14 12 12 12 12 13 12 13 12 11 9 10 9 12 14 13 11 13 11 11 11 10
10 10 10 10 11 12 12 13 14 14 9 14 13 13 13 12 14 12 12 13 12 12 11 11 11 12 12 12 11 14 10 10 10 9 13 10 15 15 12 11 12 11 10 9 9
10 10 10 10 10 11 12 13 14 14 11 14 12 12 12 13 12 13 12 13 12 11 12 12 11 12 12 12 11 12 10 10 10 10 9 12 10 13 12 16 14 12 10 9 8
10 10 9 9 10 12 12 13 13 10 12 10 12 12 12 13 12 12 13 11 10 11 9 9 9 10 10 10 10 10 10 9 8 8 7 12 11 14 14 16 14 13 12 11 9
10 10 9 10 10 12 12 11 10 9 11 11 11 11 13 12 12 12 12 12 11 11 9 9 10 9 9 11 10 10 10 8 10 7 10 10 10 13 14 13 13 13 11 10 8
10 9 9 10 11 11 11 9 8 8 9 12 11 12 13 12 13 12 12 12 11 10 5 11 13 10 8 10 11 10 10 8 12 10 10 10 12 16 12 11 11 11 10 9 8
10 9 8 9 10 10 9 6 9 9 11 11 13 12 13 13 13 13 11 9 10 8 13 9 11 8 8 8 9 10 8 9 5 0 6 11 12 12 12 11 11 10 9 8 8
9 8 8 9 10 10 6 10 8 12 12 13 13 12 11 12 13 11 11 12 12 9 9 10 11 6 8 8 8 10 9 10 6 12 11 10 11 13 14 13 11 10 9 8 8
8 9 8 10 9 8 8 8 10 11 13 13 12 11 13 12 12 12 12 13 10 8 9 6 10 8 7 6 8 7 7 9 8 8 8 8 13 9 13 13 13 11 10 8 7
7 8 6 9 7 3 8 7 11 11 12 13 13 13 13 12 12 12 13 12 9 8 11 9 9 7 8 6 7 7 10 10 9 9 4 6 11 13 11 12 11 10 9 9 7
7 5 5 4 8 5 2 9 11 11 12 12 13 14 14 12 12 13 12 9 8 10 10 9 9 8 10 8 6 7 8 9 7 7 5 8 11 11 10 10 9 9 8 7 7
5 5 4 5 3 8 6 7 11 11 12 12 13 14 13 11 11 9 9 9 9 10 10 10 5 11 13 14 8 6 6 8 8 5 7 8 10 13 9 8 9 7 5 5 4
5 4 4 5 6 4 8 9 11 9 11 12 12 13 13 10 8 8 8 8 9 9 9 10 10 4 4 8 10 9 6 5 6 9 11 15 9 13 10 8 7 6 7 5 3
3 4 4 4 8 7 8 7 12 12 10 11 11 12 12 12 14 10 8 8 10 7 8 8 7 4 7 2 4 7 7 6 7 5 7 9 10 14 14 9 5 6 5 5 4
5 5 6 6 7 7 9 10 11 12 11 13 12 12 12 13 12 11 9 8 9 8 7 8 6 7 8 2 3 9 9 7 6 6 10 9 14 12 11 11 10 9 8 7 6

GFSSW_925_temp_288.txt.gz
Temp
11 12 12 12 13 13 13 13 14 14 14 14 15 15 15 16 16 16 14 14 15 16 17 18 19 19 18 16 15 14 15 15 16 14 16 15 15 15 14 14 14 13 13 13 13
11 11 11 11 12 12 13 13 13 14 14 14 14 15 16 16 16 15 15 15 15 16 17 18 18 18 14 16 14 14 14 16 14 14 15 15 15 14 14 13 13 13 12 12 12
11 11 11 11 12 13 13 13 14 13 14 14 14 15 15 16 15 15 15 15 16 17 17 17 17 17 16 15 14 14 15 14 14 14 14 15 14 13 13 13 12 13 13 11 12
11 11 11 11 13 14 14 14 14 14 13 14 14 14 15 15 18 15 15 16 16 17 17 17 17 16 15 16 14 16 14 14 14 14 14 14 13 13 11 13 13 11 12 11 10
10 10 10 11 11 13 14 14 14 14 14 14 14 14 15 15 15 15 16 16 17 17 16 17 17 16 15 14 15 15 14 14 13 13 13 13 12 12 10 10 10 11 11 10 9
11 10 10 10 11 12 14 14 13 14 14 14 14 14 14 16 15 15 16 16 16 17 15 16 16 15 14 14 15 13 14 13 13 14 13 13 12 12 13 11 12 10 10 9 9
11 10 11 10 11 11 14 14 14 14 14 14 14 14 14 15 15 15 16 15 16 16 15 15 16 16 14 14 13 14 15 14 14 14 13 12 12 11 11 12 12 10 9 9 9
11 11 11 11 11 11 13 14 14 14 14 14 14 14 13 14 15 15 16 16 16 16 16 16 16 12 14 13 12 14 13 14 14 13 13 13 14 15 11 11 11 10 8 8 8
11 11 11 11 11 11 13 14 14 14 14 14 14 14 15 14 14 14 15 15 16 16 16 16 15 12 13 13 13 11 15 15 14 13 13 12 12 13 11 11 9 9 8 8 7
11 11 11 11 11 11 13 14 14 14 14 14 14 14 14 14 14 14 14 15 14 15 15 13 10 11 10 12 15 16 15 14 13 12 12 11 10 11 11 10 9 8 7 7 7
10 11 11 10 10 11 13 14 12 12 13 14 14 14 13 13 13 13 14 14 15 13 15 12 13 14 13 12 12 13 13 13 12 11 10 9 8 10 11 8 8 8 8 7 7
11 10 10 10 10 10 11 11 13 13 13 12 12 12 12 13 14 13 13 15 15 14 13 13 15 12 12 12 13 13 13 13 11 11 10 9 10 10 10 10 9 10 9 8 9
10 10 10 10 10 11 11 13 14 13 13 13 12 12 12 13 14 13 12 13 14 14 13 14 12 11 12 11 13 12 13 12 12 9 9 8 12 13 14 11 12 11 10 10 9
11 10 10 10 10 11 11 13 14 14 8 14 12 12 12 12 14 12 12 13 11 12 11 11 11 12 12 12 11 15 10 10 10 10 13 9 14 14 12 11 13 12 10 8 8
10 10 10 10 10 10 12 12 13 14 10 14 11 12 11 13 11 12 12 13 12 11 12 12 11 11 13 12 10 12 10 10 10 10 9 11 10 13 12 16 16 13 11 9 7
10 10 9 9 9 11 12 12 13 9 10 10 11 11 12 12 12 11 12 10 10 11 9 9 9 9 10 9 10 9 10 8 7 8 7 11 10 13 14 16 14 13 10 10 8
10 10 9 10 10 11 12 11 9 7 10 10 10 11 13 11 12 12 12 11 11 11 9 10 10 9 9 10 10 10 10 8 11 8 11 9 9 13 14 13 12 12 10 9 7
11 9 9 10 11 10 11 9 7 6 9 11 11 11 13 12 12 12 11 11 11 10 5 11 12 9 8 9 11 10 11 9 12 11 10 9 12 16 12 11 9 9 9 8 8
10 9 9 9 10 10 9 8 8 9 11 11 13 12 13 13 12 12 11 9 10 8 14 10 11 8 7 8 8 10 9 9 5 -0 6 11 12 12 13 12 11 10 10 9 8
10 8 8 9 10 10 7 10 8 11 11 12 13 12 11 11 12 11 10 12 13 9 10 10 10 6 7 8 8 9 8 10 6 13 12 10 11 14 16 16 14 12 11 9 8
9 9 7 8 9 7 8 8 10 10 12 12 11 11 13 12 12 11 12 13 10 8 9 6 10 7 7 6 8 7 7 8 9 8 9 8 14 9 13 13 14 12 10 9 8
8 10 5 8 6 6 8 7 11 11 10 12 12 13 12 12 11 12 12 12 9 8 12 9 9 7 7 6 6 7 10 9 9 9 4 6 11 13 10 12 11 10 9 8 8
7 5 5 6 8 7 5 9 11 11 11 12 12 13 13 12 12 12 12 8 8 10 11 9 8 7 9 7 6 7 8 9 7 6 5 8 11 10 9 10 9 9 9 8 7
5 5 3 4 6 9 7 7 10 10 12 12 13 13 13 11 11 10 10 8 9 10 10 10 4 11 14 14 8 6 6 8 8 5 7 7 10 12 9 8 9 8 6 5 4
4 4 3 6 5 6 9 8 10 10 10 11 12 13 13 9 7 8 8 8 9 9 9 10 10 3 3 7 11 10 6 6 6 9 10 12 8 14 9 8 7 6 7 5 4
3 3 2 4 8 6 8 9 11 11 10 10 11 12 12 12 13 10 9 9 11 7 8 8 7 4 6 2 4 7 7 5 6 4 6 7 10 14 13 10 6 7 6 6 6
3 4 4 6 5 7 7 9 10 11 11 14 12 13 12 13 12 11 8 8 10 8 7 8 6 7 8 2 4 9 10 7 6 6 9 9 14 13 11 11 9 9 8 7 7

GFSSW_925_temp_291.txt.gz
Temp
10 11 12 12 12 12 13 13 14 14 13 14 14 15 15 16 16 16 14 14 15 16 16 18 18 18 18 15 14 14 16 15 17 14 16 14 15 14 13 14 13 13 13 13 13
10 10 11 11 12 12 13 14 14 14 14 14 14 15 15 16 16 15 15 15 15 16 17 17 17 17 14 15 13 14 14 16 14 14 15 14 14 14 14 13 13 12 12 12 12
10 11 10 11 11 12 13 13 14 14 14 14 14 15 15 16 15 15 15 15 16 16 17 17 17 17 16 15 14 14 15 14 14 14 14 14 14 13 13 13 12 13 13 11 11
10 11 11 11 10 13 14 13 13 14 14 14 14 14 15 15 19 15 15 16 16 17 17 17 17 16 15 16 14 16 13 14 14 13 13 14 12 13 11 13 13 12 12 11 10
11 11 11 10 11 11 14 13 13 13 14 14 14 14 15 15 15 15 16 16 16 16 16 17 17 15 15 14 14 15 14 13 13 13 13 12 12 12 11 11 10 10 10 10 10
11 11 11 11 11 11 12 13 13 13 14 14 14 15 14 16 15 15 16 16 16 16 15 16 15 15 13 14 15 13 13 13 13 13 13 12 12 12 13 10 11 10 10 10 9
11 11 11 11 11 11 12 13 13 13 14 14 14 14 14 15 15 15 16 15 15 16 15 15 15 15 13 13 12 13 15 13 13 13 13 12 13 10 11 10 11 11 10 9 9
11 11 11 11 11 11 12 13 13 13 14 14 14 14 13 14 15 15 16 15 16 16 16 16 16 12 13 12 12 14 13 15 14 13 12 13 16 15 11 11 12 10 9 9 9
11 11 11 11 11 11 13 13 13 13 14 14 14 14 15 14 14 14 15 15 16 16 15 16 14 11 13 13 13 12 16 15 14 10 12 12 14 13 11 11 10 10 9 9 8
11 11 11 11 11 11 13 14 13 13 13 13 13 14 13 14 13 14 14 15 15 15 15 13 10 11 10 12 15 17 15 14 13 12 11 11 11 12 11 10 10 9 8 8 8
11 11 11 11 11 11 13 14 12 12 13 13 14 14 13 13 13 13 14 14 14 13 15 12 14 15 14 12 13 13 14 14 13 10 10 10 9 12 11 8 8 8 8 8 9
11 10 10 10 11 11 11 11 13 13 12 11 12 12 12 13 13 13 13 15 15 14 13 13 15 11 11 12 13 13 13 13 11 10 10 9 11 10 10 11 9 10 10 9 9
11 10 10 10 10 11 11 13 13 13 12 12 11 12 12 12 14 12 13 13 14 13 13 14 12 11 12 12 13 12 13 13 12 9 9 7 14 14 13 11 11 11 11 10 9
11 10 10 10 10 10 11 12 13 13 7 13 11 12 11 12 13 11 11 12 11 12 11 11 10 11 12 13 12 15 10 10 10 11 14 9 15 14 13 12 14 12 10 9 8
10 10 10 10 10 10 12 12 13 13 9 13 11 11 11 12 11 12 11 13 11 11 11 12 10 11 12 12 10 12 9 10 10 10 10 11 11 14 12 17 16 13 11 10 9
11 10 9 9 10 11 11 12 12 9 9 10 10 11 11 12 12 11 12 9 9 10 9 9 8 10 10 9 9 8 9 9 8 9 9 11 11 15 15 17 15 13 11 10 9
11 10 9 10 10 12 11 11 9 7 9 10 10 10 12 11 11 12 11 10 10 10 9 10 10 8 9 10 9 10 10 10 12 10 13 9 9 14 15 13 12 12 10 10 9
11 10 9 10 11 12 11 9 8 7 9 10 10 11 12 12 12 11 11 11 11 11 6 11 13 9 8 9 11 10 11 11 13 13 12 9 13 17 12 12 10 8 8 8 8
10 10 8 9 10 12 9 8 8 9 10 10 12 11 12 12 12 12 10 10 11 8 13 10 10 7 7 7 8 10 10 9 5 0 8 12 12 13 13 12 11 10 9 9 9
8 8 8 8 9 10 7 10 8 10 10 11 14 11 10 11 12 11 10 12 13 9 11 11 10 6 7 8 8 9 8 10 7 13 12 11 12 15 17 16 15 14 12 11 10
8 9 8 8 8 8 8 8 9 10 11 11 11 11 12 11 12 11 12 13 11 8 10 7 10 7 7 7 8 7 7 8 9 8 10 9 14 10 14 15 15 13 12 10 9
8 8 6 7 6 4 8 7 10 11 10 12 12 13 12 12 11 12 12 12 9 9 12 10 8 7 8 6 5 7 10 10 10 9 3 6 12 13 10 11 11 10 9 9 8
7 5 5 7 8 7 7 9 10 11 11 11 12 13 13 12 14 12 11 8 8 10 11 10 9 8 9 8 6 7 7 9 7 6 5 10 13 11 9 10 10 9 9 8 7
5 6 4 2 5 8 8 8 9 10 12 12 13 13 12 11 10 10 10 8 8 10 11 10 6 12 15 14 8 5 6 8 8 6 7 8 11 12 9 8 10 8 6 6 4
4 5 4 6 5 6 9 9 9 10 11 11 12 12 12 9 8 9 8 8 9 10 9 10 10 3 2 5 10 9 6 6 7 9 12 11 8 13 9 9 9 7 8 6 4
3 4 2 4 6 6 6 8 9 10 10 11 11 12 12 12 13 10 9 9 11 8 9 8 8 4 5 2 4 8 6 6 5 3 6 5 8 12 12 9 6 7 6 7 7
3 3 5 6 5 6 7 7 8 10 11 13 13 12 12 13 12 11 9 9 10 9 8 8 6 9 8 1 5 8 10 7 6 6 10 10 14 13 12 11 10 9 8 7 7